CAS-2T & KS-1Q

Last updated on Thu Sep 10 2026 00:03:12 GMT+0000 (Coordinated Universal Time)

1 41847U 16066G 26252.45356390 .00000658 00000+0 10206-3 0 9995 2 41847 98.3761 327.2213 0340258 233.7171 123.2148 14.44832394516966
UTC large
Height (km)
Speed (km/s)
/
Latitude / Longitude
Inclination (degrees)
Orbital Period (minutes)
Azimuth
Elevation
Range (km)
Doppler Factor

Next 0 passes for location: London (51.5072 / 0.1276)

No passes found over London.
CAS-2T & KS-1Q